Regional Weather Roundup
Issued by NWS

Home | Current Version | Previous Version | Text Only | Print | Product List | Glossary Off
Versions: 1 2 3 4 5 6 7 8 9 10 11 12 13 14 15 16 17 18 19 20 21 22 23 24 25 26 27 28 29 30 31 32 33 34 35 36 37 38 39 40 41 42 43 44 45 46 47 48 49 50

000
ASUS43 KOAX 230410
RWRNE

WEATHER ROUNDUP FOR NEBRASKA
NATIONAL WEATHER SERVICE OMAHA NE
1100 PM CDT MON SEP 22 2014

NOTES: SATELLITE DATA IS BEING USED TO AUGMENT CLOUD COVER ABOVE
       12000 FEET.
       "FAIR" INDICATES FEW OR NO CLOUDS BELOW 12,000 FEET WITH NO
       SIGNIFICANT WEATHER AND/OR OBSTRUCTIONS TO VISIBILITY.

  * THESE STATIONS DO NOT REPORT WEATHER SUCH AS RAIN...SNOW OR FOG.

NEZ001>004-019>022-054>056-230500-
NEBRASKA PANHANDLE

CITY           SKY/WX    TMP DP  RH WIND       PRES   REMARKS
SCOTTSBLUFF    PTCLDY    57  56  96 SE6       30.04F
ALLIANCE       CLEAR     55  52  89 S9        30.03F
CHADRON        PTCLDY    61  55  81 NW6       29.97F
KIMBALL        MOCLDY    56  54  92 SW5       30.08F
SIDNEY         MOCLDY    60  56  86 NW6       30.08F
$$

NEZ057>060-069>072-079>082-230500-
SOUTHWEST NEBRASKA

CITY           SKY/WX    TMP DP  RH WIND       PRES   REMARKS
NORTH PLATTE   CLOUDY    59  52  77 SE9       30.07S
IMPERIAL       CLOUDY    62  53  72 S14       30.06R
LEXINGTON      LGT RAIN  58  56  92 SE13      30.10F
MCCOOK         LGT RAIN  61  55  81 SE15G28   30.10F
OGALLALA       MOCLDY    61  55  78 E6        30.06S
$$

NEZ005>010-023>029-035>040-094-230500-
NORTH CENTRAL NEBRASKA

CITY           SKY/WX    TMP DP  RH WIND       PRES   REMARKS
VALENTINE      CLOUDY    63  54  72 S23G32    30.03F
AINSWORTH      CLOUDY    58  55  89 S13G21    30.07F
BROKEN BOW     CLOUDY    59  54  83 SE10      30.11S
O`NEILL        CLOUDY    63  55  77 S9        30.13F
ORD            CLOUDY    59  55  87 S8        30.12F
THEDFORD       MOCLDY    58  54  84 SE10      30.09R
$$

NEZ041-046>049-061>064-073>077-083>087-230500-
SOUTH CENTRAL NEBRASKA

CITY           SKY/WX    TMP DP  RH WIND       PRES   REMARKS
GRAND ISLAND   CLOUDY    64  49  57 S7        30.18R
AURORA         CLOUDY    63  48  58 SE6       30.17S
HASTINGS       CLOUDY    64  46  52 SE7       30.17R
HEBRON         CLOUDY    62  48  60 SE7       30.17F
HOLDREGE       LGT RAIN  60  53  77 CALM      30.14S
KEARNEY *      CLOUDY    59  54  82 E10       30.15F
YORK           CLOUDY    64  50  59 S8        30.18S
$$

NEZ011>018-030>034-042>045-230500-
NORTHEAST NEBRASKA

CITY           SKY/WX    TMP DP  RH WIND       PRES   REMARKS
NORFOLK        LGT RAIN  64  50  60 SE10      30.15S
ALBION         LGT RAIN  60  53  76 S5        30.16R
BLAIR          CLOUDY    63  50  63 SE6       30.19S
COLUMBUS *     CLOUDY    63  50  63 S6        30.18S
FREMONT        CLOUDY    64  49  59 SE8       30.18F
TEKAMAH        MOCLDY    56  52  86 S3        30.18S
WAYNE          CLOUDY    61  51  70 S9        30.16F
$$

NEZ050>053-065>068-078-088>093-230500-
SOUTHEAST NEBRASKA

CITY           SKY/WX    TMP DP  RH WIND       PRES   REMARKS
LINCOLN        CLOUDY    63  51  65 S12       30.19F
OMAHA EPPLEY   CLOUDY    62  51  67 SE8       30.19S
BEATRICE       CLOUDY    61  50  66 SE5       30.19F
FALLS CITY     MOCLDY    60  52  74 S6        30.20S
NEBRASKA CITY    N/A     59  46  63 S6        30.21R
PLATTSMOUTH    CLOUDY    60  48  64 SE5       30.20S
$$

NEZ044-045-051>053-067-230500-
OMAHA AREA

CITY           SKY/WX    TMP DP  RH WIND       PRES   REMARKS
OMAHA EPPLEY   CLOUDY    62  51  67 SE8       30.19S
BLAIR          CLOUDY    63  50  63 SE6       30.19S
FREMONT        CLOUDY    64  49  59 SE8       30.18F
MILLARD        CLOUDY    63  52  67 SE5       30.19S
OFFUTT AFB     CLOUDY    59  58  98 E5        30.19S
PLATTSMOUTH    CLOUDY    60  48  64 SE5       30.20S
WAHOO          FAIR      61  50  68 S6        30.18F
$$



USA.gov is the U.S. government's official web portal to all federal, state and local government web resources and services.